EZY12BE EGKK-EKCH

Flight info

Callsign EZY12BE
Flight time 1h 29m
Altitude 37000
Route FRANE M604 PAAVO Q295 SOMVA DCT MAVAS DCT DOSUR DCT TALSA P729 TUDLO
Aircraft A320/M-SDE2E3FGHIJ1RWXYZ/LB1

Departure

Time 2026-04-25 14:47
Airport London Gatwick Airport (EGKK)

Arrival

Time 2026-04-25 16:17
Airport Copenhagen Kastrup Airport (EKCH)
Time Latitude Longitude Altitude Speed Heading
2026-04-25 13:56 51.15312 -0.17990 206 ft 0 kts 348°
2026-04-25 13:56 51.15320 -0.17931 212 ft 0 kts 347°
2026-04-25 14:34 51.15304 -0.17926 232 ft 2 kts 347°
2026-04-25 14:34 51.15288 -0.17920 206 ft 2 kts 347°
2026-04-25 14:34 51.15271 -0.17914 213 ft 2 kts 347°
2026-04-25 14:35 51.15260 -0.17911 214 ft 2 kts 334°
2026-04-25 14:35 51.15241 -0.17892 214 ft 2 kts 286°
2026-04-25 14:35 51.15240 -0.17882 215 ft 0 kts 266°
2026-04-25 14:39 51.15238 -0.17904 210 ft 8 kts 263°
2026-04-25 14:40 51.15216 -0.18061 211 ft 17 kts 258°
2026-04-25 14:40 51.15191 -0.18244 210 ft 17 kts 257°
2026-04-25 14:40 51.15168 -0.18438 213 ft 18 kts 258°
2026-04-25 14:40 51.15142 -0.18644 210 ft 20 kts 258°
2026-04-25 14:41 51.15111 -0.18866 214 ft 21 kts 258°
2026-04-25 14:41 51.15079 -0.19101 205 ft 22 kts 258°
2026-04-25 14:41 51.15046 -0.19350 205 ft 24 kts 258°
2026-04-25 14:41 51.15012 -0.19590 211 ft 21 kts 257°
2026-04-25 14:42 51.14979 -0.19829 208 ft 23 kts 258°
2026-04-25 14:42 51.14968 -0.19911 208 ft 24 kts 258°
2026-04-25 14:42 51.14910 -0.20329 207 ft 22 kts 258°
2026-04-25 14:42 51.14876 -0.20573 205 ft 23 kts 257°
2026-04-25 14:43 51.14844 -0.20814 205 ft 22 kts 258°
2026-04-25 14:43 51.14817 -0.21013 202 ft 15 kts 258°
2026-04-25 14:43 51.14795 -0.21168 209 ft 14 kts 256°
2026-04-25 14:43 51.14767 -0.21304 209 ft 12 kts 255°
2026-04-25 14:44 51.14729 -0.21398 208 ft 10 kts 196°
2026-04-25 14:44 51.14670 -0.21368 205 ft 8 kts 143°
2026-04-25 14:44 51.14624 -0.21333 210 ft 6 kts 159°
2026-04-25 14:44 51.14576 -0.21305 206 ft 10 kts 158°
2026-04-25 14:45 51.14527 -0.21236 210 ft 9 kts 125°
2026-04-25 14:45 51.14513 -0.21170 215 ft 4 kts 84°
2026-04-25 14:45 51.14515 -0.21157 205 ft 0 kts 75°
2026-04-25 14:46 51.14537 -0.21024 206 ft 38 kts 76°
2026-04-25 14:46 51.14646 -0.20230 210 ft 105 kts 78°
2026-04-25 14:47 51.14843 -0.18800 213 ft 157 kts 77°
2026-04-25 14:47 51.14924 -0.18219 257 ft 166 kts 77°
2026-04-25 14:47 51.15377 -0.15145 1207 ft 178 kts 76°
2026-04-25 14:47 51.15585 -0.13837 1622 ft 183 kts 75°
2026-04-25 14:48 51.15902 -0.11833 2173 ft 193 kts 77°
2026-04-25 14:48 51.16198 -0.09613 2476 ft 217 kts 78°
2026-04-25 14:48 51.16516 -0.07123 2865 ft 242 kts 78°
2026-04-25 14:48 51.16861 -0.04389 3464 ft 258 kts 81°
2026-04-25 14:49 51.16886 -0.01486 4310 ft 265 kts 92°
2026-04-25 14:49 51.16815 0.01493 4947 ft 272 kts 91°
2026-04-25 14:49 51.16751 0.04512 5871 ft 274 kts 91°
2026-04-25 14:49 51.16692 0.07563 6786 ft 277 kts 90°
2026-04-25 14:50 51.16635 0.10647 7617 ft 281 kts 90°
2026-04-25 14:50 51.16580 0.13784 8450 ft 285 kts 91°
2026-04-25 14:50 51.16532 0.16968 9273 ft 289 kts 90°
2026-04-25 14:50 51.16525 0.20192 10093 ft 293 kts 88°
2026-04-25 14:51 51.16843 0.23292 10670 ft 303 kts 69°
2026-04-25 14:51 51.17971 0.26205 10911 ft 323 kts 43°
2026-04-25 14:51 51.19887 0.28194 11360 ft 333 kts 25°
2026-04-25 14:51 51.21983 0.29842 12047 ft 339 kts 25°
2026-04-25 14:52 51.24102 0.31537 12775 ft 343 kts 25°
2026-04-25 14:52 51.26242 0.33272 13492 ft 347 kts 25°
2026-04-25 14:52 51.28407 0.35041 14184 ft 351 kts 25°
2026-04-25 14:52 51.29850 0.36224 14586 ft 354 kts 25°
2026-04-25 14:53 51.32803 0.38639 15409 ft 358 kts 25°
2026-04-25 14:53 51.35031 0.40460 15982 ft 361 kts 25°
2026-04-25 14:53 51.37279 0.42295 16605 ft 364 kts 25°
2026-04-25 14:53 51.39547 0.44143 17232 ft 368 kts 25°
2026-04-25 14:54 51.41834 0.46009 17840 ft 371 kts 25°
2026-04-25 14:54 51.44115 0.47877 18434 ft 375 kts 25°
2026-04-25 14:54 51.46447 0.49792 18935 ft 379 kts 25°
2026-04-25 14:54 51.48838 0.51758 19436 ft 383 kts 25°
2026-04-25 14:55 51.51185 0.53690 19922 ft 386 kts 25°
2026-04-25 14:55 51.53588 0.55672 20418 ft 390 kts 25°
2026-04-25 14:55 51.56013 0.57671 20890 ft 394 kts 25°
2026-04-25 14:55 51.58460 0.59690 21383 ft 397 kts 25°
2026-04-25 14:56 51.60929 0.61731 21856 ft 401 kts 25°
2026-04-25 14:56 51.63419 0.63793 22316 ft 404 kts 25°
2026-04-25 14:56 51.65930 0.65873 22784 ft 408 kts 25°
2026-04-25 14:56 51.68464 0.67973 23245 ft 411 kts 25°
2026-04-25 14:57 51.71015 0.70087 23698 ft 414 kts 25°
2026-04-25 14:57 51.73589 0.72224 24072 ft 417 kts 25°
2026-04-25 14:57 51.76178 0.74380 24455 ft 420 kts 25°
2026-04-25 14:57 51.78778 0.76551 24841 ft 422 kts 25°
2026-04-25 14:58 51.81374 0.78800 25235 ft 425 kts 30°
2026-04-25 14:58 51.83759 0.81655 25634 ft 429 kts 41°
2026-04-25 14:58 51.85643 0.85404 25996 ft 433 kts 60°
2026-04-25 14:58 51.86741 0.89940 26342 ft 436 kts 79°
2026-04-25 14:59 51.87127 0.94818 26683 ft 438 kts 83°
2026-04-25 14:59 51.87625 0.99696 27017 ft 441 kts 77°
2026-04-25 14:59 51.88463 1.04493 27309 ft 445 kts 70°
2026-04-25 14:59 51.89581 1.09175 27622 ft 447 kts 72°
2026-04-25 15:00 51.90037 1.14130 27954 ft 448 kts 94°
2026-04-25 15:00 51.89367 1.19014 28268 ft 445 kts 116°
2026-04-25 15:00 51.87667 1.23138 28577 ft 440 kts 139°
2026-04-25 15:00 51.85188 1.25931 28882 ft 433 kts 160°
2026-04-25 15:01 51.82297 1.27017 29183 ft 425 kts 182°
2026-04-25 15:01 51.79418 1.26272 29479 ft 418 kts 204°
2026-04-25 15:01 51.76960 1.23861 29825 ft 414 kts 223°
2026-04-25 15:01 51.75113 1.20330 30135 ft 414 kts 238°
2026-04-25 15:02 51.73506 1.16465 30398 ft 416 kts 229°
2026-04-25 15:02 51.71230 1.13589 30623 ft 422 kts 207°
2026-04-25 15:02 51.68396 1.12298 30841 ft 430 kts 186°
2026-04-25 15:02 51.65400 1.12801 31047 ft 440 kts 166°
2026-04-25 15:03 51.62566 1.14753 31244 ft 448 kts 153°
2026-04-25 15:03 51.60031 1.17725 31465 ft 456 kts 139°
2026-04-25 15:03 51.58065 1.21742 31759 ft 461 kts 120°
2026-04-25 15:03 51.57026 1.26620 32049 ft 465 kts 98°
2026-04-25 15:04 51.57100 1.31802 32366 ft 467 kts 77°
2026-04-25 15:04 51.58251 1.36648 32669 ft 465 kts 57°
2026-04-25 15:04 51.60152 1.40841 32963 ft 464 kts 51°
2026-04-25 15:04 51.62140 1.44928 33293 ft 464 kts 50°
2026-04-25 15:05 51.64131 1.49012 33618 ft 463 kts 51°
2026-04-25 15:05 51.66115 1.53096 33962 ft 462 kts 51°
2026-04-25 15:05 51.68087 1.57173 34311 ft 461 kts 51°
2026-04-25 15:06 51.72013 1.65323 34888 ft 460 kts 51°
2026-04-25 15:06 51.73967 1.69395 35149 ft 459 kts 51°
2026-04-25 15:06 51.75922 1.73473 35397 ft 459 kts 51°
2026-04-25 15:06 51.77874 1.77547 35637 ft 459 kts 51°
2026-04-25 15:07 51.79826 1.81622 35884 ft 458 kts 51°
2026-04-25 15:07 51.81775 1.85693 36159 ft 457 kts 51°
2026-04-25 15:07 51.83717 1.89754 36406 ft 456 kts 51°
2026-04-25 15:07 51.85654 1.93821 36627 ft 456 kts 51°
2026-04-25 15:08 51.87584 1.97885 36850 ft 456 kts 51°
2026-04-25 15:08 51.89515 2.01960 37050 ft 456 kts 51°
2026-04-25 15:08 51.91444 2.06032 37199 ft 456 kts 51°
2026-04-25 15:09 51.95286 2.14160 37225 ft 453 kts 51°
2026-04-25 15:09 52.01023 2.26345 37225 ft 453 kts 51°
2026-04-25 15:10 52.04837 2.34469 37235 ft 452 kts 51°
2026-04-25 15:11 52.10535 2.46676 37232 ft 452 kts 51°
2026-04-25 15:11 52.14331 2.54827 37234 ft 452 kts 51°
2026-04-25 15:12 52.20008 2.67084 37239 ft 452 kts 51°
2026-04-25 15:12 52.22542 2.72553 37235 ft 452 kts 51°
2026-04-25 15:13 52.29439 2.87534 37244 ft 451 kts 51°
2026-04-25 15:14 52.33200 2.95767 37247 ft 450 kts 51°
2026-04-25 15:14 52.36942 3.03973 37254 ft 449 kts 51°
2026-04-25 15:15 52.40041 3.10774 37242 ft 448 kts 51°
2026-04-25 15:15 52.44390 3.20353 37252 ft 448 kts 51°
2026-04-25 15:16 52.48095 3.28556 37256 ft 447 kts 51°
2026-04-25 15:16 52.53714 3.41045 37223 ft 460 kts 51°
2026-04-25 15:17 52.59430 3.53808 37224 ft 462 kts 51°
2026-04-25 15:18 52.63237 3.62333 37219 ft 462 kts 51°
2026-04-25 15:18 52.68905 3.75084 37221 ft 462 kts 51°
2026-04-25 15:19 52.71443 3.80810 37235 ft 462 kts 51°
2026-04-25 15:19 52.76478 3.92236 37230 ft 462 kts 51°
2026-04-25 15:20 52.80253 4.00822 37226 ft 462 kts 51°
2026-04-25 15:20 52.84021 4.09422 37224 ft 462 kts 51°
2026-04-25 15:21 52.87783 4.18042 37218 ft 462 kts 51°
2026-04-25 15:21 52.91543 4.26687 37208 ft 462 kts 51°
2026-04-25 15:22 52.95299 4.35344 37222 ft 463 kts 51°
2026-04-25 15:22 52.99047 4.44020 37219 ft 463 kts 51°
2026-04-25 15:23 53.02798 4.52729 37218 ft 463 kts 51°
2026-04-25 15:23 53.06557 4.61475 37216 ft 463 kts 51°
2026-04-25 15:24 53.10284 4.70203 37203 ft 463 kts 51°
2026-04-25 15:24 53.12746 4.75991 37202 ft 463 kts 51°
2026-04-25 15:25 53.17691 4.87642 37220 ft 463 kts 51°
2026-04-25 15:25 53.21404 4.96398 37214 ft 462 kts 51°
2026-04-25 15:26 53.25101 5.05165 37208 ft 462 kts 51°
2026-04-25 15:26 53.28789 5.13944 37226 ft 461 kts 51°
2026-04-25 15:27 53.32472 5.22732 37216 ft 461 kts 51°
2026-04-25 15:28 53.37989 5.35934 37218 ft 461 kts 51°
2026-04-25 15:28 53.41653 5.44761 37218 ft 461 kts 51°
2026-04-25 15:29 53.45306 5.53606 37216 ft 461 kts 51°
2026-04-25 15:29 53.48953 5.62471 37212 ft 461 kts 51°
2026-04-25 15:30 53.52596 5.71345 37233 ft 461 kts 51°
2026-04-25 15:30 53.55653 5.78790 37220 ft 461 kts 51°
2026-04-25 15:31 53.59267 5.87626 37214 ft 461 kts 51°
2026-04-25 15:31 53.62890 5.96534 37228 ft 461 kts 51°
2026-04-25 15:32 53.66504 6.05445 37210 ft 460 kts 51°
2026-04-25 15:32 53.70097 6.14353 37204 ft 459 kts 51°
2026-04-25 15:33 53.75472 6.27737 37225 ft 459 kts 51°
2026-04-25 15:33 53.79051 6.36670 37203 ft 458 kts 51°
2026-04-25 15:34 53.82613 6.45604 37216 ft 458 kts 51°
2026-04-25 15:34 53.85572 6.53032 37199 ft 457 kts 51°
2026-04-25 15:35 53.91470 6.67937 37187 ft 456 kts 51°
2026-04-25 15:36 53.96747 6.81344 37167 ft 455 kts 51°
2026-04-25 15:36 54.00261 6.90292 37178 ft 455 kts 50°
2026-04-25 15:37 54.03764 6.99274 37156 ft 456 kts 51°
2026-04-25 15:37 54.07266 7.08284 37159 ft 457 kts 50°
2026-04-25 15:38 54.10769 7.17313 37130 ft 457 kts 50°
2026-04-25 15:38 54.14275 7.26377 37121 ft 458 kts 50°
2026-04-25 15:39 54.17773 7.35473 37122 ft 459 kts 51°
2026-04-25 15:39 54.21268 7.44585 37146 ft 459 kts 50°
2026-04-25 15:40 54.24174 7.52179 37125 ft 460 kts 50°
2026-04-25 15:40 54.28228 7.62851 37148 ft 461 kts 50°
2026-04-25 15:41 54.31714 7.72054 37130 ft 461 kts 50°
2026-04-25 15:41 54.35198 7.81276 37123 ft 461 kts 50°
2026-04-25 15:42 54.38678 7.90505 37118 ft 461 kts 50°
2026-04-25 15:42 54.42149 7.99746 37104 ft 461 kts 50°
2026-04-25 15:43 54.45608 8.09012 37119 ft 461 kts 50°
2026-04-25 15:43 54.49062 8.18298 37114 ft 461 kts 50°
2026-04-25 15:44 54.52520 8.27629 37085 ft 459 kts 50°
2026-04-25 15:44 54.55923 8.36844 37086 ft 459 kts 50°
2026-04-25 15:45 54.59345 8.46140 37076 ft 459 kts 50°
2026-04-25 15:45 54.62208 8.53942 37080 ft 460 kts 50°
2026-04-25 15:46 54.66171 8.64798 37075 ft 460 kts 50°
2026-04-25 15:46 54.69579 8.74163 37131 ft 461 kts 49°
2026-04-25 15:47 54.72981 8.83542 37058 ft 459 kts 49°
2026-04-25 15:47 54.76370 8.92920 37035 ft 460 kts 50°
2026-04-25 15:48 54.79753 9.02327 37037 ft 460 kts 50°
2026-04-25 15:48 54.83130 9.11760 37020 ft 461 kts 50°
2026-04-25 15:49 54.86658 9.20972 36612 ft 448 kts 40°
2026-04-25 15:49 54.88684 9.24975 36356 ft 436 kts 39°
2026-04-25 15:49 54.90697 9.28949 36126 ft 430 kts 39°
2026-04-25 15:50 54.92645 9.32789 35920 ft 428 kts 38°
2026-04-25 15:50 54.94607 9.36656 35669 ft 425 kts 38°
2026-04-25 15:50 54.96558 9.40503 35408 ft 421 kts 38°
2026-04-25 15:50 54.98485 9.44313 34919 ft 418 kts 38°
2026-04-25 15:51 55.00397 9.48106 34426 ft 415 kts 37°
2026-04-25 15:51 55.01679 9.50658 34089 ft 414 kts 37°
2026-04-25 15:51 55.04177 9.55636 33388 ft 410 kts 37°
2026-04-25 15:51 55.06039 9.59358 32914 ft 405 kts 37°
2026-04-25 15:52 55.07881 9.63046 32416 ft 401 kts 37°
2026-04-25 15:52 55.09640 9.66850 31947 ft 407 kts 44°
2026-04-25 15:52 55.11074 9.71273 31445 ft 420 kts 54°
2026-04-25 15:52 55.12087 9.76189 30939 ft 444 kts 61°
2026-04-25 15:53 55.13055 9.81464 30470 ft 468 kts 60°
2026-04-25 15:53 55.14066 9.86993 29793 ft 483 kts 61°
2026-04-25 15:53 55.15065 9.92611 29300 ft 485 kts 62°
2026-04-25 15:53 55.16052 9.98263 28678 ft 486 kts 62°
2026-04-25 15:54 55.17033 10.03912 28160 ft 496 kts 62°
2026-04-25 15:54 55.18054 10.09765 27591 ft 500 kts 62°
2026-04-25 15:54 55.19070 10.15593 27004 ft 503 kts 62°
2026-04-25 15:54 55.20094 10.21453 26426 ft 504 kts 63°
2026-04-25 15:55 55.21131 10.27371 25826 ft 511 kts 63°
2026-04-25 15:55 55.22171 10.33315 25202 ft 511 kts 63°
2026-04-25 15:55 55.23211 10.39284 24574 ft 513 kts 63°
2026-04-25 15:55 55.24240 10.45248 23896 ft 510 kts 63°
2026-04-25 15:56 55.25257 10.51193 23207 ft 507 kts 63°
2026-04-25 15:56 55.26262 10.57093 22381 ft 504 kts 63°
2026-04-25 15:56 55.27251 10.62892 21197 ft 496 kts 63°
2026-04-25 15:56 55.28226 10.68626 20543 ft 489 kts 63°
2026-04-25 15:57 55.29205 10.74334 20270 ft 487 kts 63°
2026-04-25 15:57 55.30181 10.79981 19756 ft 484 kts 63°
2026-04-25 15:57 55.31149 10.85603 19224 ft 480 kts 63°
2026-04-25 15:57 55.32106 10.91214 18670 ft 476 kts 63°
2026-04-25 15:58 55.33047 10.96763 18148 ft 473 kts 63°
2026-04-25 15:58 55.33979 11.02305 17581 ft 470 kts 63°
2026-04-25 15:58 55.34892 11.07788 17073 ft 467 kts 63°
2026-04-25 15:58 55.35798 11.13247 16597 ft 465 kts 64°
2026-04-25 15:59 55.36700 11.18694 16048 ft 464 kts 64°
2026-04-25 15:59 55.37594 11.24128 15544 ft 461 kts 65°
2026-04-25 15:59 55.38477 11.29521 15052 ft 457 kts 65°
2026-04-25 15:59 55.39349 11.34877 14559 ft 454 kts 65°
2026-04-25 16:00 55.40211 11.40183 14065 ft 450 kts 65°
2026-04-25 16:00 55.40501 11.41967 13902 ft 448 kts 65°
2026-04-25 16:00 55.41915 11.50678 13048 ft 441 kts 66°
2026-04-25 16:00 55.42722 11.55710 12757 ft 412 kts 66°
2026-04-25 16:01 55.43332 11.60485 12595 ft 391 kts 76°
2026-04-25 16:01 55.43284 11.65191 12324 ft 381 kts 94°
2026-04-25 16:01 55.42583 11.69601 12018 ft 370 kts 106°
2026-04-25 16:01 55.41710 11.73818 11515 ft 362 kts 107°
2026-04-25 16:02 55.40837 11.77934 10963 ft 356 kts 108°
2026-04-25 16:02 55.39972 11.81978 10433 ft 350 kts 108°
2026-04-25 16:02 55.39122 11.85951 9983 ft 345 kts 108°
2026-04-25 16:02 55.38281 11.89876 9769 ft 340 kts 108°
2026-04-25 16:03 55.37449 11.93764 9635 ft 339 kts 108°
2026-04-25 16:03 55.36623 11.97626 9505 ft 338 kts 108°
2026-04-25 16:03 55.35801 12.01475 9264 ft 336 kts 108°
2026-04-25 16:03 55.34983 12.05308 9004 ft 333 kts 107°
2026-04-25 16:04 55.34416 12.09194 8753 ft 325 kts 92°
2026-04-25 16:04 55.34361 12.13098 8501 ft 315 kts 78°
2026-04-25 16:04 55.34582 12.16907 8277 ft 313 kts 77°
2026-04-25 16:04 55.34797 12.20693 8026 ft 311 kts 77°
2026-04-25 16:05 55.35003 12.24407 7779 ft 308 kts 77°
2026-04-25 16:05 55.35208 12.28139 7552 ft 307 kts 78°
2026-04-25 16:05 55.35605 12.35586 7075 ft 304 kts 78°
2026-04-25 16:06 55.35799 12.39266 6847 ft 301 kts 78°
2026-04-25 16:06 55.35991 12.42903 6615 ft 299 kts 79°
2026-04-25 16:06 55.36184 12.46548 6368 ft 297 kts 79°
2026-04-25 16:06 55.36375 12.50153 6134 ft 296 kts 79°
2026-04-25 16:07 55.36564 12.53750 5900 ft 295 kts 79°
2026-04-25 16:07 55.36627 12.54962 5821 ft 294 kts 79°
2026-04-25 16:07 55.37107 12.60821 5451 ft 287 kts 68°
2026-04-25 16:07 55.37639 12.64193 5227 ft 286 kts 68°
2026-04-25 16:08 55.38165 12.67557 5040 ft 286 kts 68°
2026-04-25 16:08 55.38690 12.70932 4929 ft 286 kts 68°
2026-04-25 16:08 55.39214 12.74308 4726 ft 286 kts 68°
2026-04-25 16:08 55.39730 12.77671 4499 ft 284 kts 68°
2026-04-25 16:09 55.40243 12.81026 4282 ft 282 kts 68°
2026-04-25 16:09 55.40735 12.84274 4131 ft 267 kts 68°
2026-04-25 16:09 55.41223 12.87353 3996 ft 254 kts 62°
2026-04-25 16:09 55.42025 12.89955 3928 ft 233 kts 43°
2026-04-25 16:10 55.43127 12.91900 3864 ft 220 kts 26°
2026-04-25 16:10 55.44399 12.93374 3770 ft 219 kts 23°
2026-04-25 16:10 55.45680 12.94836 3681 ft 219 kts 22°
2026-04-25 16:10 55.47027 12.95890 3584 ft 204 kts
2026-04-25 16:11 55.48363 12.96124 3497 ft 185 kts 348°
2026-04-25 16:11 55.49566 12.95704 3394 ft 170 kts 333°
2026-04-25 16:11 55.50586 12.94776 3286 ft 161 kts 320°
2026-04-25 16:11 55.51397 12.93437 3208 ft 161 kts 307°
2026-04-25 16:12 55.52034 12.91792 3125 ft 163 kts 304°
2026-04-25 16:12 55.52659 12.90125 3034 ft 162 kts 303°
2026-04-25 16:12 55.53261 12.88517 2938 ft 151 kts 303°
2026-04-25 16:12 55.53447 12.88019 2878 ft 148 kts 303°
2026-04-25 16:13 55.54360 12.85577 2571 ft 136 kts 303°
2026-04-25 16:13 55.54863 12.84230 2419 ft 127 kts 303°
2026-04-25 16:13 55.55343 12.82945 2246 ft 124 kts 303°
2026-04-25 16:13 55.55816 12.81677 2071 ft 123 kts 302°
2026-04-25 16:14 55.56284 12.80421 1904 ft 122 kts 302°
2026-04-25 16:14 55.56752 12.79165 1740 ft 122 kts 302°
2026-04-25 16:14 55.57061 12.78336 1625 ft 122 kts 302°
2026-04-25 16:14 55.57526 12.77086 1457 ft 122 kts 303°
2026-04-25 16:15 55.57992 12.75833 1286 ft 122 kts 302°
2026-04-25 16:15 55.58457 12.74584 1113 ft 121 kts 302°
2026-04-25 16:15 55.58918 12.73344 952 ft 120 kts 304°
2026-04-25 16:15 55.59381 12.72097 771 ft 122 kts 302°
2026-04-25 16:16 55.59842 12.70856 605 ft 122 kts 302°
2026-04-25 16:16 55.60317 12.69576 415 ft 123 kts 303°
2026-04-25 16:16 55.60787 12.68300 245 ft 120 kts 303°
2026-04-25 16:16 55.61246 12.67079 88 ft 120 kts 303°
2026-04-25 16:17 55.61687 12.65893 28 ft 102 kts 304°
2026-04-25 16:17 55.61936 12.65217 18 ft 23 kts 303°
2026-04-25 16:17 55.62003 12.65036 19 ft 15 kts 311°
2026-04-25 16:17 55.62086 12.65039 22 ft 13 kts 30°
2026-04-25 16:18 55.62131 12.65090 24 ft 0 kts 33°
2026-04-25 16:19 55.62132 12.65091 24 ft 1 kts 33°
2026-04-25 16:19 55.62145 12.65107 26 ft 2 kts 35°
2026-04-25 16:19 55.62159 12.65126 24 ft 5 kts 35°
2026-04-25 16:20 55.62216 12.65182 23 ft 5 kts 28°
2026-04-25 16:20 55.62280 12.65200 22 ft 12 kts
2026-04-25 16:20 55.62433 12.65236 21 ft 11 kts 59°
2026-04-25 16:21 55.62438 12.65355 18 ft 8 kts 90°
2026-04-25 16:21 55.62472 12.65440 18 ft 8 kts 23°
2026-04-25 16:21 55.62509 12.65466 18 ft 5 kts 22°
2026-04-25 16:21 55.62519 12.65473 17 ft 0 kts 22°